Weather History for Fairfield, CA

Change the Weather History Date:

Thursday, February 14, 2013

  Actual Average Record
Temperature  
Mean Temperature 53 °F -  
Max Temperature 71 °F 56 °F 71 °F (2013)
Min Temperature 35 °F 40 °F 35 °F (2001)
Degree Days  
Heating Degree Days 12    
Growing Degree Days 3 (Base 50)    
Moisture  
Dew Point 41 °F    
Average Humidity 83    
Maximum Humidity 100    
Minimum Humidity 34    
Precipitation  
Precipitation 0.00 in - - ()
Sea Level Pressure  
Sea Level Pressure 30.22 in    
Wind  
Wind Speed 6 mph (North)    
Max Wind Speed 18 mph    
Max Gust Speed 23 mph    
Visibility 9 miles    
Events      
Averages and records for this station are not official NWS values.
T = Trace of Precipitation, MM = Missing Value Source: NWS Daily Summary

Daily Weather History Graph

Daily Weather History Graph

Search for Another Location

Airport:

Trip Planner

Search our weather history database for the weather conditions in past years. The results will help you decide how hot, cold, wet, or windy it might be!

Date:

Astronomy

Feb. 14, 2013 Rise Set
Actual Time 6:58 AM PST 5:45 PM PST
Civil Twilight 6:31 AM PST 6:12 PM PST
Nautical Twilight 6:00 AM PST 6:43 PM PST
Astronomical Twilight 5:30 AM PST 7:14 PM PST
Moon 9:08 AM PST (2/14) 10:48 PM PST (2/14)
Length of Visible Light 11h 40m
Length of Day
10h 46m
Waxing Crescent, 22% of the Moon is Illuminated
Feb 14
Waxing Crescent
Feb 17
First Quarter
Feb 25
Full
Mar 4
Last Quarter
Mar 11
New

Hourly Weather History & Observations

Time (PST) Temp. Windchill Dew Point Humidity Pressure Visibility Wind Dir Wind Speed Gust Speed Precip Events Conditions
12:58 AM 39.2 °F 35.9 °F 39.2 °F 100% 30.25 in 10.0 mi North 4.6 mph - N/A   Clear
1:58 AM 39.4 °F 37.2 °F 39.0 °F 99% 30.25 in 10.0 mi NE 3.5 mph - N/A   Clear
2:58 AM 36.9 °F 31.4 °F 36.9 °F 100% 30.25 in 10.0 mi North 6.9 mph - N/A   Clear
3:55 AM 39.7 °F 34.9 °F 39.4 °F 99% 30.23 in 10.0 mi NNE 6.9 mph - N/A   Clear
3:58 AM 39.7 °F 34.9 °F 39.4 °F 99% 30.24 in 10.0 mi North 6.9 mph - N/A   Clear
4:55 AM 37.9 °F 32.1 °F 37.8 °F 99% 30.22 in 10.0 mi NNE 8.1 mph - N/A   Clear
4:58 AM 37.9 °F 32.1 °F 37.8 °F 99% 30.24 in 10.0 mi NNE 8.1 mph - N/A   Clear
5:58 AM 36.3 °F - 36.3 °F 100% 30.25 in 10.0 mi Variable 1.2 mph - N/A   Clear
6:58 AM 36.9 °F - 36.9 °F 100% 30.25 in 10.0 mi West 2.3 mph - N/A   Clear
7:23 AM 35.6 °F 32.8 °F 35.6 °F 100% 30.23 in 1.5 mi WSW 3.5 mph - N/A   Clear
7:28 AM 35.6 °F - 35.6 °F 100% 30.24 in 1.2 mi SW 2.3 mph - N/A   Clear
7:33 AM 37.4 °F - 37.4 °F 100% 30.24 in 2.0 mi SW 2.3 mph - N/A   Clear
7:38 AM 37.4 °F 34.9 °F 37.4 °F 100% 30.24 in 2.5 mi WSW 3.5 mph - N/A   Clear
7:43 AM 37.4 °F - 37.4 °F 100% 30.24 in 10.0 mi WSW 2.3 mph - N/A   Clear
7:58 AM 39.4 °F - 39.4 °F 100% 30.27 in 10.0 mi Calm Calm - N/A   Clear
8:58 AM 48.9 °F - 45.1 °F 87% 30.27 in 10.0 mi WSW 3.5 mph - N/A   Clear
9:58 AM 57.9 °F - 45.5 °F 63% 30.26 in 10.0 mi East 2.3 mph - N/A   Clear
10:58 AM 63.5 °F - 43.2 °F 47% 30.24 in 10.0 mi NNE 16.1 mph - N/A   Clear
11:58 AM 66.7 °F - 41.7 °F 40% 30.22 in 10.0 mi NNE 16.1 mph - N/A   Clear
12:58 PM 69.3 °F - 43.9 °F 40% 30.21 in 10.0 mi ENE 16.1 mph 23.0 mph N/A   Clear
1:58 PM 70.3 °F - 40.8 °F 34% 30.18 in 10.0 mi NNE 17.3 mph - N/A   Clear
2:58 PM 71.2 °F - 41.7 °F 34% 30.18 in 10.0 mi NE 18.4 mph - N/A   Clear
3:58 PM 70.5 °F - 42.4 °F 36% 30.17 in 10.0 mi NE 16.1 mph - N/A   Clear
4:58 PM 66.4 °F - 50.4 °F 56% 30.17 in 10.0 mi East 5.8 mph - N/A   Clear
5:58 PM 57.9 °F - 50.4 °F 76% 30.18 in 10.0 mi ESE 4.6 mph - N/A   Clear
6:58 PM 47.5 °F - 47.3 °F 99% 30.19 in 10.0 mi WSW 2.3 mph - N/A   Clear
7:58 PM 51.6 °F - 48.6 °F 89% 30.19 in 10.0 mi WNW 5.8 mph - N/A   Clear
8:58 PM 48.0 °F - 46.8 °F 95% 30.20 in 10.0 mi West 3.5 mph - N/A   Clear
9:58 PM 45.1 °F - 44.2 °F 97% 30.21 in 10.0 mi Calm Calm - N/A   Clear
10:58 PM 46.2 °F 45.0 °F 45.3 °F 97% 30.23 in 10.0 mi SE 3.5 mph - N/A   Clear
11:58 PM 47.5 °F - 39.7 °F 75% 30.23 in 10.0 mi NNE 4.6 mph - N/A   Clear